| time (UTC) | temp F | wind direction | speed MPH | gust MPH | rain 1hr in | rain 24hr in | rain mn in | humidity % | barometer mb |
| 20260504171552 | 74 | 271 | 1.0 | 2.0 | 0.00 | 0.12 | 0.12 | 61 | 1022.6 |
| 20260504171049 | 72 | 1 | 1.0 | 2.0 | 0.00 | 0.12 | 0.12 | 60 | 1022.9 |
| 20260504170545 | 71 | 52 | 1.0 | 5.0 | 0.00 | 0.12 | 0.12 | 61 | 1023.0 |
| 20260504150929 | 62 | 113 | 2.0 | 3.0 | 0.00 | 0.12 | 0.12 | 89 | 1024.8 |
| 20260504150426 | 60 | 47 | 1.0 | 2.0 | 0.00 | 0.12 | 0.12 | 90 | 1025.0 |
| 20260504140846 | 55 | 99 | 1.0 | 2.0 | 0.00 | 0.12 | 0.12 | 99 | 1025.4 |
| 20260504140342 | 54 | 72 | 0.0 | 3.0 | 0.00 | 0.12 | 0.12 | 99 | 1025.7 |
| 20260504130811 | 46 | 66 | 0.0 | 1.0 | 0.00 | 0.12 | 0.12 | 99 | 1026.7 |
| 20260504130307 | 46 | 68 | 0.0 | 0.0 | 0.00 | 0.12 | 0.12 | 99 | 1026.2 |
| 20260504120231 | 45 | 78 | 0.0 | 0.0 | 0.00 | 0.00 | 0.00 | 97 | 1026.8 |
| 20260504110658 | 43 | 77 | 0.0 | 0.0 | 0.00 | 0.00 | 0.00 | 99 | 1025.1 |
| 20260504110154 | 43 | 77 | 0.0 | 0.0 | 0.00 | 0.00 | 0.00 | 99 | 1025.3 |
| 20260504100119 | 44 | 74 | 0.0 | 0.0 | 0.00 | 0.00 | 0.00 | 97 | 1024.9 |
| 20260504081512 | 43 | 70 | 0.0 | 0.0 | 0.00 | 0.00 | 0.00 | 95 | 1025.8 |
| 20260504081007 | 42 | 70 | 0.0 | 0.0 | 0.00 | 0.00 | 0.00 | 95 | 1025.8 |
| 20260504080504 | 43 | 70 | 0.0 | 0.0 | 0.00 | 0.00 | 0.00 | 95 | 1025.7 |
| 20260504050317 | 44 | 67 | 0.0 | 0.0 | 0.00 | 0.00 | 0.00 | 89 | 1027.0 |
| 20260504045814 | 44 | 67 | 0.0 | 0.0 | 0.00 | 0.00 | 0.00 | 89 | 1026.9 |
| 20260504045314 | 44 | 67 | 0.0 | 0.0 | 0.00 | 0.00 | 0.00 | 89 | 1027.2 |
| 20260504044812 | 44 | 67 | 0.0 | 0.0 | 0.00 | 0.00 | 0.00 | 89 | 1026.9 |
| 20260504044309 | 44 | 67 | 0.0 | 0.0 | 0.00 | 0.00 | 0.00 | 88 | 1026.9 |
| 20260504043806 | 44 | 67 | 0.0 | 0.0 | 0.00 | 0.00 | 0.00 | 88 | 1026.9 |
| 20260504043303 | 44 | 67 | 0.0 | 0.0 | 0.00 | 0.00 | 0.00 | 89 | 1026.8 |
| 20260504042801 | 44 | 67 | 0.0 | 0.0 | 0.00 | 0.00 | 0.00 | 89 | 1026.9 |
| 20260504042257 | 44 | 67 | 0.0 | 0.0 | 0.00 | 0.00 | 0.00 | 89 | 1026.9 |
| 20260504041753 | 44 | 67 | 0.0 | 0.0 | 0.00 | 0.00 | 0.00 | 87 | 1026.7 |
| 20260504041249 | 44 | 67 | 0.0 | 0.0 | 0.00 | 0.00 | 0.00 | 87 | 1026.3 |
| 20260504040745 | 45 | 67 | 0.0 | 0.0 | 0.00 | 0.00 | 0.00 | 87 | 1026.7 |
| 20260504040243 | 45 | 67 | 0.0 | 0.0 | 0.00 | 0.00 | 0.00 | 87 | 1026.4 |
| 20260504035739 | 45 | 67 | 0.0 | 0.0 | 0.00 | 0.00 | 0.00 | 87 | 1026.3 |
| 20260504035236 | 44 | 67 | 0.0 | 0.0 | 0.00 | 0.00 | 0.00 | 87 | 1026.6 |
| 20260504034734 | 44 | 67 | 0.0 | 0.0 | 0.00 | 0.00 | 0.00 | 88 | 1026.3 |
| 20260504034231 | 44 | 67 | 0.0 | 0.0 | 0.00 | 0.00 | 0.00 | 87 | 1026.4 |
| 20260504033729 | 44 | 67 | 0.0 | 0.0 | 0.00 | 0.00 | 0.00 | 88 | 1026.1 |
| 20260504033226 | 44 | 67 | 0.0 | 0.0 | 0.00 | 0.00 | 0.00 | 87 | 1026.1 |
| 20260504032723 | 44 | 67 | 0.0 | 0.0 | 0.00 | 0.00 | 0.00 | 87 | 1026.2 |
| 20260504032220 | 44 | 67 | 0.0 | 0.0 | 0.00 | 0.00 | 0.00 | 87 | 1026.4 |
| 20260504031716 | 44 | 67 | 0.0 | 0.0 | 0.00 | 0.00 | 0.00 | 87 | 1026.3 |
| 20260504031214 | 44 | 67 | 0.0 | 0.0 | 0.00 | 0.00 | 0.00 | 87 | 1025.9 |
| 20260504030709 | 44 | 67 | 0.0 | 0.0 | 0.00 | 0.00 | 0.00 | 87 | 1026.3 |
| 20260504030207 | 44 | 67 | 0.0 | 0.0 | 0.00 | 0.00 | 0.00 | 87 | 1026.1 |
| 20260504025703 | 44 | 66 | 0.0 | 0.0 | 0.00 | 0.00 | 0.00 | 88 | 1026.2 |
| 20260504025200 | 44 | 66 | 0.0 | 0.0 | 0.00 | 0.00 | 0.00 | 88 | 1026.4 |
| 20260504024657 | 44 | 66 | 0.0 | 0.0 | 0.00 | 0.00 | 0.00 | 88 | 1026.3 |
| 20260504024153 | 44 | 66 | 0.0 | 0.0 | 0.00 | 0.00 | 0.00 | 87 | 1026.2 |
| 20260504023650 | 44 | 66 | 0.0 | 0.0 | 0.00 | 0.00 | 0.00 | 87 | 1026.1 |
| 20260504023146 | 44 | 66 | 0.0 | 0.0 | 0.00 | 0.00 | 0.00 | 86 | 1026.0 |
| 20260504022643 | 44 | 66 | 0.0 | 0.0 | 0.00 | 0.00 | 0.00 | 86 | 1025.8 |
| 20260504022138 | 45 | 66 | 0.0 | 0.0 | 0.00 | 0.00 | 0.00 | 85 | 1026.0 |
| 20260504021637 | 45 | 66 | 0.0 | 0.0 | 0.00 | 0.00 | 0.00 | 84 | 1025.7 |
| 20260504021133 | 45 | 66 | 0.0 | 0.0 | 0.00 | 0.00 | 0.00 | 83 | 1025.8 |
| 20260504020630 | 46 | 66 | 0.0 | 0.0 | 0.00 | 0.00 | 0.00 | 83 | 1025.8 |
| 20260504020126 | 46 | 66 | 0.0 | 0.0 | 0.00 | 0.00 | 0.00 | 82 | 1025.9 |
| 20260504015623 | 46 | 66 | 0.0 | 0.0 | 0.00 | 0.00 | 0.00 | 81 | 1025.9 |
| 20260504015119 | 46 | 66 | 0.0 | 0.0 | 0.00 | 0.00 | 0.00 | 80 | 1025.9 |
| 20260504014615 | 47 | 66 | 0.0 | 0.0 | 0.00 | 0.00 | 0.00 | 80 | 1025.9 |
| 20260504014113 | 47 | 66 | 0.0 | 0.0 | 0.00 | 0.00 | 0.00 | 79 | 1025.5 |
| 20260504013610 | 47 | 66 | 0.0 | 0.0 | 0.00 | 0.00 | 0.00 | 78 | 1025.8 |
| 20260504013107 | 48 | 66 | 0.0 | 0.0 | 0.00 | 0.00 | 0.00 | 78 | 1025.6 |
| 20260504012604 | 48 | 66 | 0.0 | 0.0 | 0.00 | 0.00 | 0.00 | 77 | 1025.5 |
| 20260504012102 | 48 | 66 | 0.0 | 0.0 | 0.00 | 0.00 | 0.00 | 77 | 1025.5 |
| 20260504011559 | 48 | 66 | 0.0 | 0.0 | 0.00 | 0.00 | 0.00 | 77 | 1025.7 |
| 20260504011055 | 49 | 66 | 0.0 | 0.0 | 0.00 | 0.00 | 0.00 | 76 | 1025.4 |
| 20260504010550 | 49 | 67 | 0.0 | 0.0 | 0.00 | 0.00 | 0.00 | 76 | 1025.6 |
| 20260504010047 | 49 | 65 | 0.0 | 0.0 | 0.00 | 0.00 | 0.00 | 74 | 1025.3 |
| 20260504005544 | 50 | 65 | 0.0 | 0.0 | 0.00 | 0.00 | 0.00 | 73 | 1025.4 |
| 20260504005041 | 50 | 65 | 0.0 | 1.0 | 0.00 | 0.00 | 0.00 | 72 | 1025.5 |
| 20260504004539 | 50 | 65 | 0.0 | 0.0 | 0.00 | 0.00 | 0.00 | 71 | 1025.4 |
| 20260504004036 | 51 | 65 | 0.0 | 0.0 | 0.00 | 0.00 | 0.00 | 70 | 1025.3 |
| 20260504003532 | 51 | 65 | 0.0 | 1.0 | 0.00 | 0.00 | 0.00 | 70 | 1025.1 |
| 20260504003029 | 52 | 61 | 0.0 | 0.0 | 0.00 | 0.00 | 0.00 | 68 | 1025.1 |
| 20260504002526 | 52 | 62 | 0.0 | 1.0 | 0.00 | 0.00 | 0.00 | 67 | 1025.1 |
| 20260504002023 | 53 | 54 | 0.0 | 0.0 | 0.00 | 0.00 | 0.00 | 66 | 1025.0 |
| 20260504001521 | 53 | 55 | 0.0 | 0.0 | 0.00 | 0.00 | 0.00 | 65 | 1025.0 |
| 20260504001017 | 53 | 104 | 1.0 | 2.0 | 0.00 | 0.00 | 0.00 | 65 | 1024.9 |
| 20260504000514 | 54 | 40 | 0.0 | 1.0 | 0.00 | 0.00 | 0.00 | 63 | 1025.0 |
| 20260504000011 | 54 | 26 | 0.0 | 0.0 | 0.00 | 0.00 | 0.00 | 61 | 1024.9 |
| 20260503235509 | 55 | 23 | 1.0 | 1.0 | 0.00 | 0.00 | 0.00 | 60 | 1025.0 |
| 20260503235006 | 55 | 42 | 0.0 | 0.0 | 0.00 | 0.00 | 0.00 | 60 | 1025.0 |
| 20260503234503 | 55 | 41 | 0.0 | 0.0 | 0.00 | 0.00 | 0.00 | 58 | 1025.1 |
| 20260503234002 | 56 | 42 | 0.0 | 0.0 | 0.00 | 0.00 | 0.00 | 56 | 1025.0 |
| 20260503233457 | 56 | 41 | 0.0 | 0.0 | 0.00 | 0.00 | 0.00 | 56 | 1024.8 |
| 20260503232954 | 57 | 41 | 0.0 | 0.0 | 0.00 | 0.00 | 0.00 | 55 | 1024.6 |
| 20260503232451 | 57 | 41 | 0.0 | 0.0 | 0.00 | 0.00 | 0.00 | 57 | 1024.7 |
| 20260503231949 | 57 | 41 | 0.0 | 0.0 | 0.00 | 0.00 | 0.00 | 54 | 1024.8 |
| 20260503231446 | 58 | 41 | 0.0 | 1.0 | 0.00 | 0.00 | 0.00 | 52 | 1025.1 |
| 20260503230942 | 58 | 26 | 0.0 | 0.0 | 0.00 | 0.00 | 0.00 | 53 | 1024.9 |
| 20260503230439 | 58 | 26 | 0.0 | 0.0 | 0.00 | 0.00 | 0.00 | 52 | 1025.1 |
| 20260503225937 | 59 | 26 | 0.0 | 0.0 | 0.00 | 0.00 | 0.00 | 52 | 1024.9 |
| 20260503225433 | 59 | 25 | 0.0 | 1.0 | 0.00 | 0.00 | 0.00 | 49 | 1025.0 |
| 20260503224929 | 60 | 24 | 0.0 | 1.0 | 0.00 | 0.00 | 0.00 | 47 | 1025.0 |
| 20260503224426 | 60 | 109 | 1.0 | 2.0 | 0.00 | 0.00 | 0.00 | 46 | 1025.0 |
| 20260503223924 | 61 | 358 | 2.0 | 2.0 | 0.00 | 0.00 | 0.00 | 44 | 1025.2 |
| 20260503223422 | 62 | 29 | 1.0 | 2.0 | 0.00 | 0.00 | 0.00 | 44 | 1025.2 |
| 20260503222917 | 62 | 280 | 3.0 | 5.0 | 0.00 | 0.00 | 0.00 | 35 | 1025.2 |
| 20260503222416 | 62 | 14 | 0.0 | 1.0 | 0.00 | 0.00 | 0.00 | 41 | 1025.3 |
| 20260503221914 | 66 | 136 | 4.0 | 5.0 | 0.00 | 0.00 | 0.00 | 37 | 1025.4 |
| 20260503221412 | 67 | 72 | 0.0 | 5.0 | 0.00 | 0.00 | 0.00 | 30 | 1025.5 |
| 20260503220908 | 67 | 56 | 1.0 | 2.0 | 0.00 | 0.00 | 0.00 | 32 | 1025.6 |
| 20260503220404 | 67 | 38 | 1.0 | 3.0 | 0.00 | 0.00 | 0.00 | 32 | 1025.4 |
| 20260503215902 | 68 | 316 | 2.0 | 3.0 | 0.00 | 0.00 | 0.00 | 33 | 1025.5 |
| 20260503215358 | 68 | 130 | 3.0 | 3.0 | 0.00 | 0.00 | 0.00 | 37 | 1025.7 |
| 20260503214856 | 68 | 89 | 1.0 | 3.0 | 0.00 | 0.00 | 0.00 | 31 | 1025.6 |
| 20260503214353 | 67 | 29 | 0.0 | 5.0 | 0.00 | 0.00 | 0.00 | 32 | 1025.7 |
| 20260503213850 | 68 | 327 | 1.0 | 2.0 | 0.00 | 0.00 | 0.00 | 31 | 1025.8 |
| 20260503213348 | 68 | 351 | 2.0 | 3.0 | 0.00 | 0.00 | 0.00 | 30 | 1025.7 |
| 20260503212845 | 67 | 112 | 0.0 | 5.0 | 0.00 | 0.00 | 0.00 | 31 | 1025.6 |
| 20260503212343 | 69 | 55 | 1.0 | 3.0 | 0.00 | 0.00 | 0.00 | 30 | 1025.7 |
| 20260503211839 | 67 | 49 | 0.0 | 3.0 | 0.00 | 0.00 | 0.00 | 32 | 1025.8 |
| 20260503211336 | 66 | 70 | 1.0 | 2.0 | 0.00 | 0.00 | 0.00 | 30 | 1025.8 |
| 20260503210831 | 68 | 288 | 5.0 | 5.0 | 0.00 | 0.00 | 0.00 | 30 | 1025.8 |
| 20260503210329 | 68 | 94 | 4.0 | 5.0 | 0.00 | 0.00 | 0.00 | 30 | 1026.0 |
| 20260503205824 | 67 | 28 | 1.0 | 3.0 | 0.00 | 0.00 | 0.00 | 31 | 1025.9 |
| 20260503205321 | 67 | 9 | 1.0 | 2.0 | 0.00 | 0.00 | 0.00 | 28 | 1026.0 |
| 20260503204817 | 67 | 31 | 1.0 | 5.0 | 0.00 | 0.00 | 0.00 | 32 | 1026.1 |
| 20260503204315 | 67 | 295 | 3.0 | 5.0 | 0.00 | 0.00 | 0.00 | 33 | 1025.9 |
| 20260503203812 | 66 | 285 | 5.0 | 7.0 | 0.00 | 0.00 | 0.00 | 33 | 1026.1 |
| 20260503203309 | 69 | 54 | 0.0 | 2.0 | 0.00 | 0.00 | 0.00 | 33 | 1026.2 |
| 20260503202806 | 68 | 33 | 2.0 | 6.0 | 0.00 | 0.00 | 0.00 | 31 | 1026.3 |
| 20260503202304 | 66 | 332 | 1.0 | 3.0 | 0.00 | 0.00 | 0.00 | 33 | 1026.7 |
| 20260503201802 | 66 | 55 | 0.0 | 2.0 | 0.00 | 0.00 | 0.00 | 30 | 1026.8 |
| 20260503201259 | 67 | 66 | 1.0 | 5.0 | 0.00 | 0.00 | 0.00 | 30 | 1026.8 |
| 20260503200756 | 64 | 218 | 3.0 | 7.0 | 0.00 | 0.00 | 0.00 | 32 | 1026.9 |
| 20260503200252 | 63 | 348 | 2.0 | 9.0 | 0.00 | 0.00 | 0.00 | 34 | 1027.0 |
| 20260503195749 | 66 | 331 | 7.0 | 9.0 | 0.00 | 0.00 | 0.00 | 31 | 1027.1 |
| 20260503195245 | 65 | 154 | 2.0 | 3.0 | 0.00 | 0.00 | 0.00 | 33 | 1026.8 |
| 20260503194744 | 65 | 22 | 1.0 | 3.0 | 0.00 | 0.00 | 0.00 | 32 | 1027.1 |
| 20260503194239 | 64 | 71 | 1.0 | 2.0 | 0.00 | 0.00 | 0.00 | 32 | 1027.4 |
| 20260503193735 | 66 | 16 | 3.0 | 3.0 | 0.00 | 0.00 | 0.00 | 32 | 1027.5 |
| 20260503193232 | 64 | 284 | 2.0 | 5.0 | 0.00 | 0.00 | 0.00 | 34 | 1027.5 |
| 20260503192727 | 64 | 141 | 5.0 | 7.0 | 0.00 | 0.00 | 0.00 | 34 | 1027.9 |
| 20260503192222 | 63 | 51 | 0.0 | 2.0 | 0.00 | 0.00 | 0.00 | 34 | 1028.0 |
| 20260503191720 | 65 | 281 | 6.0 | 8.0 | 0.00 | 0.00 | 0.00 | 35 | 1028.0 |
| 20260503191217 | 64 | 52 | 2.0 | 5.0 | 0.00 | 0.00 | 0.00 | 35 | 1028.1 |
| 20260503190714 | 65 | 306 | 5.0 | 6.0 | 0.00 | 0.00 | 0.00 | 33 | 1028.1 |
| 20260503190210 | 62 | 22 | 2.0 | 3.0 | 0.00 | 0.00 | 0.00 | 35 | 1028.4 |
| 20260503185708 | 63 | 323 | 6.0 | 7.0 | 0.00 | 0.00 | 0.00 | 35 | 1028.5 |
| 20260503185203 | 63 | 69 | 2.0 | 7.0 | 0.00 | 0.00 | 0.00 | 34 | 1028.3 |
| 20260503184658 | 64 | 82 | 1.0 | 2.0 | 0.00 | 0.00 | 0.00 | 38 | 1028.6 |
| 20260503184154 | 64 | 249 | 3.0 | 3.0 | 0.00 | 0.00 | 0.00 | 34 | 1028.6 |
| 20260503183650 | 63 | 78 | 2.0 | 3.0 | 0.00 | 0.00 | 0.00 | 33 | 1029.0 |
| 20260503183148 | 60 | 276 | 4.0 | 6.0 | 0.00 | 0.00 | 0.00 | 36 | 1029.0 |
| 20260503182646 | 60 | 302 | 4.0 | 10.0 | 0.00 | 0.00 | 0.00 | 36 | 1028.9 |
| 20260503182144 | 63 | 289 | 5.0 | 7.0 | 0.00 | 0.00 | 0.00 | 34 | 1029.0 |
| 20260503181641 | 61 | 36 | 3.0 | 7.0 | 0.00 | 0.00 | 0.00 | 34 | 1029.0 |
| 20260503181138 | 64 | 41 | 1.0 | 3.0 | 0.00 | 0.00 | 0.00 | 34 | 1029.2 |
| 20260503180635 | 64 | 185 | 2.0 | 5.0 | 0.00 | 0.00 | 0.00 | 33 | 1029.3 |
| 20260503180132 | 61 | 56 | 1.0 | 7.0 | 0.00 | 0.00 | 0.00 | 35 | 1029.5 |
| 20260503175629 | 61 | 307 | 4.0 | 7.0 | 0.00 | 0.00 | 0.00 | 35 | 1029.2 |
| 20260503175126 | 63 | 60 | 1.0 | 7.0 | 0.00 | 0.00 | 0.00 | 34 | 1029.4 |
| 20260503174623 | 62 | 59 | 1.0 | 2.0 | 0.00 | 0.00 | 0.00 | 33 | 1029.4 |
| 20260503174120 | 62 | 302 | 3.0 | 5.0 | 0.00 | 0.00 | 0.00 | 36 | 1029.5 |
| 20260503173615 | 61 | 288 | 2.0 | 5.0 | 0.00 | 0.00 | 0.00 | 36 | 1029.2 |
| 20260503173112 | 62 | 326 | 2.0 | 3.0 | 0.00 | 0.00 | 0.00 | 34 | 1029.6 |
| 20260503172609 | 58 | 76 | 2.0 | 5.0 | 0.00 | 0.00 | 0.00 | 36 | 1029.7 |
| 20260503172106 | 60 | 312 | 6.0 | 7.0 | 0.00 | 0.00 | 0.00 | 36 | 1029.7 |